Back to catalog

JILIN-1 GAOFEN 07B 02 XING

AliveScienceSSO
NORAD 68694·PAYLOAD·🇨🇳 China
This satellite name has not been confirmed by official sources yet.

Launched Apr 14, 2026 from Jiuquan Satellite Launch Center

Loading…

Next Passes (next 24 hours)

TLE

FreshSource: Space-Track

Epoch: Sep 14, 2026, 12:39 UTC

1 68694U 26080D   26257.52741123  .00003274  00000-0  21158-3 0  9992
2 68694  97.6594 332.9848 0019539 117.4629 242.8589 15.08782508 23118

Track JILIN-1 GAOFEN 07B 02 XING in real time with AllMySat

Download on the App Store